This is the latest recevied weather packets stored in our database for station/object KG0HG. If no packets are shown the sender has not sent any weather packets the latest 10 day(s).
| Time | Temp. | Humidity | Pressure | Rain* | Wind** | Luminosity | Snow |
|---|---|---|---|---|---|---|---|
| 1777715191 | 3.89° C | 88% | 1019.9 hPa | 0 mm | - | 0 W/m² | - |
| 1777714889 | 3.89° C | 88% | 1019.8 hPa | 0 mm | - | 0 W/m² | - |
| 1777714588 | 3.89° C | 87% | 1019.7 hPa | 0 mm | - | 0 W/m² | - |
| 1777714284 | 3.89° C | 86% | 1019.8 hPa | 0 mm | - | 0 W/m² | - |
| 1777713982 | 3.89° C | 85% | 1019.9 hPa | 0 mm | - | 0 W/m² | - |
| 1777713680 | 4.44° C | 85% | 1019.8 hPa | 0 mm | - | 0 W/m² | - |
| 1777713376 | 4.44° C | 84% | 1019.9 hPa | 0 mm | - | 0 W/m² | - |
| 1777713073 | 5° C | 84% | 1019.7 hPa | 0 mm | - | 0 W/m² | - |
| 1777712770 | 4.44° C | 83% | 1019.9 hPa | 0 mm | - | 0 W/m² | - |
| 1777712468 | 4.44° C | 82% | 1019.7 hPa | 0 mm | - | 0 W/m² | - |
| 1777712164 | 5° C | 81% | 1019.6 hPa | 0 mm | - | 0 W/m² | - |
| 1777711860 | 5° C | 80% | 1019.8 hPa | 0 mm | - | 0 W/m² | - |
| 1777711557 | 5° C | 79% | 1019.8 hPa | 0 mm | - | 0 W/m² | - |
| 1777711252 | 5° C | 79% | 1019.7 hPa | 0 mm | - | 0 W/m² | - |
| 1777710950 | 5° C | 79% | 1019.8 hPa | 0 mm | - | 0 W/m² | - |
| 1777710646 | 5° C | 79% | 1019.6 hPa | 0 mm | - | 0 W/m² | - |
| 1777710344 | 5.56° C | 78% | 1019.7 hPa | 0 mm | - | 0 W/m² | - |
| 1777710040 | 5.56° C | 78% | 1019.6 hPa | 0 mm | - | 0 W/m² | - |
| 1777709738 | 5.56° C | 76% | 1019.4 hPa | 0 mm | - | 0 W/m² | - |
| 1777709435 | 6.11° C | 75% | 1019.4 hPa | 0 mm | - | 0 W/m² | - |
| 1777709133 | 6.11° C | 73% | 1019.3 hPa | 0 mm | - | 0 W/m² | - |
| 1777708830 | 6.11° C | 72% | 1019.4 hPa | 0 mm | - | 0 W/m² | - |
| 1777708527 | 6.67° C | 71% | 1019.6 hPa | 0 mm | - | 0 W/m² | - |
| 1777708225 | 6.67° C | 70% | 1019.2 hPa | 0 mm | - | 0 W/m² | - |
| 1777707923 | 7.22° C | 69% | 1019.5 hPa | 0 mm | - | 0 W/m² | - |
* Rain latest hour (hover to see other rain measurements)
** Current wind speed in m/s (hover to see current wind gust speed)